Vorticity
6 6 7 7 9 11 12 13 11 8 5 3 3 6 9 11 11 11 10 8 7 6 7 8 8 9 9 8 7 7 6 7 6 6 6 7 8 7 6 8 9 9 8 9 10 9 6 5 3 3 3 3 3 4 6 6 6 8 8 7 8 7 7 7 6 6 8 6 4 4 4 4 4 5 4 3 5 7 9 10 10 9 9 8 10
4 1 3 5 6 8 10 13 13 11 7 3 3 4 7 9 9 10 10 9 8 6 6 7 7 9 9 8 7 8 8 8 7 7 6 7 7 7 6 6 7 9 9 7 9 9 8 8 6 4 3 3 2 1 2 2 2 3 3 3 5 4 5 6 4 3 5 6 4 3 4 4 3 4 5 5 7 8 10 11 11 12 11 10 10
6 3 1 2 4 6 7 10 13 14 11 5 3 3 6 8 9 9 10 9 9 8 6 5 6 7 9 9 8 7 7 8 8 8 8 7 7 6 6 6 6 7 8 8 9 9 9 10 9 7 5 4 5 4 3 3 2 2 2 1 2 2 3 4 3 3 3 4 5 3 4 6 6 6 7 8 9 9 8 9 11 12 12 10 8
4 7 6 1 3 6 4 4 8 12 13 9 5 3 4 7 9 9 9 9 8 8 8 6 5 5 7 9 9 8 7 7 8 9 9 8 9 8 6 6 6 6 6 7 9 10 9 9 10 9 8 7 8 7 6 5 4 4 4 3 3 4 4 4 4 5 4 5 7 7 6 6 7 9 9 8 8 8 8 10 10 9 8 7 5
7 6 11 6 1 4 6 4 4 7 12 13 9 5 3 5 8 9 8 9 9 8 7 7 6 5 6 7 8 10 10 8 7 8 10 9 9 9 8 7 7 7 6 6 7 8 8 8 9 8 8 8 9 9 8 7 7 6 6 6 5 6 6 6 6 7 7 7 7 9 10 8 6 7 9 8 7 7 9 10 8 6 6 6 6
22 10 15 14 4 2 5 6 5 5 7 11 11 8 4 2 5 7 7 8 10 10 9 8 6 5 5 5 7 8 10 10 9 8 8 10 10 10 10 8 7 7 7 7 6 7 7 7 8 8 7 7 8 9 9 8 8 7 7 7 7 7 7 7 7 8 8 8 8 8 10 10 7 5 7 9 9 9 10 9 8 7 5 6 7
26 19 19 16 8 5 4 5 9 7 4 6 10 10 7 3 2 5 7 6 7 9 10 10 10 7 5 4 5 6 7 9 10 9 8 8 9 10 10 9 8 6 7 7 7 7 6 6 7 7 7 6 6 8 8 8 8 8 7 7 8 8 8 8 8 8 8 7 7 6 6 7 7 6 7 9 10 10 10 9 7 5 4 6 6
14 21 23 15 8 10 10 7 8 8 4 4 6 8 10 7 3 3 5 5 5 6 7 8 10 10 9 6 3 4 6 7 8 9 9 8 8 10 10 10 9 8 7 7 6 6 6 6 6 6 6 6 6 6 6 7 7 7 7 8 8 7 7 7 7 7 6 5 5 5 5 6 7 8 8 8 8 8 9 10 8 5 5 5 4
9 18 28 28 19 11 8 11 10 6 7 6 4 5 9 8 6 5 4 4 4 4 4 5 6 7 10 9 5 3 4 6 7 8 8 8 8 9 10 11 10 9 8 7 7 7 6 6 6 6 6 6 6 6 6 6 6 5 6 7 7 7 6 6 6 6 6 6 5 6 8 9 7 7 7 6 5 6 8 9 8 6 6 6 4
3 10 19 29 32 18 6 11 14 8 10 13 8 6 7 6 5 5 4 4 4 4 4 4 4 5 6 8 9 6 3 4 6 6 7 8 8 8 8 10 10 10 10 9 8 7 7 7 7 7 6 6 6 5 5 5 5 4 5 6 6 6 6 6 6 7 7 7 7 7 9 8 6 5 6 5 6 8 10 9 7 5 5 7 6
6 14 13 15 28 28 16 12 11 8 11 16 12 7 7 7 6 6 4 2 2 4 4 4 5 5 5 5 8 9 7 6 5 6 6 7 7 7 6 7 9 9 9 9 10 9 8 7 7 8 8 8 7 6 6 6 5 4 4 5 5 6 6 6 6 7 8 8 8 8 8 7 5 5 6 7 10 12 10 8 7 6 6 7 6
14 17 10 3 10 21 23 17 12 10 10 12 9 6 6 9 9 9 9 6 3 2 3 4 6 6 6 6 6 8 8 7 6 7 7 7 7 7 7 6 7 7 8 8 8 8 8 7 7 7 7 8 8 8 7 7 6 5 5 5 6 5 6 6 6 6 7 8 8 7 7 6 6 6 7 10 12 11 8 6 7 8 6 4 4
7 4 2 4 5 9 14 16 18 18 14 11 11 10 10 11 11 11 11 9 7 5 3 3 5 5 7 7 7 7 7 7 6 6 7 8 8 8 8 8 8 8 8 8 8 8 8 7 7 6 6 6 6 7 8 8 8 7 6 5 5 5 5 6 7 7 7 7 8 7 6 6 7 6 6 8 9 7 7 6 5 5 3 1 2
3 2 3 7 7 4 4 7 14 19 18 15 14 13 11 10 10 11 11 9 8 7 6 4 3 4 6 7 8 8 7 7 7 6 6 7 7 7 7 7 7 7 7 7 8 9 9 8 8 7 6 6 5 5 6 7 7 8 8 7 6 6 6 7 8 8 8 8 8 7 6 6 8 7 5 5 5 5 4 4 3 2 2 2 3
2 7 6 5 7 7 6 4 6 11 14 15 16 18 16 10 6 5 6 8 9 8 7 6 4 3 3 4 6 7 7 6 6 6 7 8 9 9 8 7 7 7 6 6 6 7 8 8 9 9 8 8 7 6 6 6 7 8 9 9 8 7 7 8 9 9 9 9 9 9 7 6 8 9 7 5 5 4 3 4 4 2 4 5 4
-2 1 0 -0 2 5 4 2 0 3 6 6 8 13 19 20 18 15 11 10 12 13 12 11 8 4 1 0 1 4 6 7 6 5 6 7 9 9 9 9 9 8 7 7 7 7 8 8 8 9 9 10 10 9 8 6 7 7 8 9 10 10 10 9 8 9 10 10 10 11 10 9 8 8 7 5 4 4 4 4 4 4 6 8 6
-5 -2 -0 3 5 3 2 2 1 1 3 4 2 3 8 13 17 21 23 19 14 14 18 20 18 11 5 2 -0 1 3 6 6 5 5 5 6 7 8 9 9 10 9 8 8 8 8 8 9 8 9 9 10 10 11 10 9 9 8 8 9 10 10 10 9 8 8 9 9 9 10 9 8 7 6 5 4 4 5 5 5 5 7 10 10
4 11 14 12 7 0 -0 4 5 3 3 5 3 2 5 8 6 9 16 20 17 13 13 16 20 19 13 7 4 5 6 7 6 5 5 6 6 6 7 8 8 9 10 9 9 9 8 8 9 9 9 8 7 7 9 10 11 11 10 10 9 9 9 10 10 8 8 8 9 9 8 8 7 6 6 5 5 5 6 7 7 6 7 8 10
4 11 11 4 -2 -2 2 8 9 6 4 3 3 2 4 7 7 6 7 10 14 15 11 8 12 16 15 11 9 8 7 7 7 6 7 10 8 5 6 8 8 9 9 9 9 9 9 9 8 8 8 8 7 6 6 7 9 11 11 11 12 11 9 8 7 6 5 6 7 8 8 8 7 7 6 5 5 4 4 5 6 5 6 7 7
2 5 2 -4 -3 3 6 7 7 7 6 5 5 5 4 4 7 10 9 6 5 6 7 6 9 13 15 15 17 17 13 12 13 12 10 10 10 8 7 7 8 9 10 9 9 9 9 9 8 7 7 7 7 7 6 5 6 7 8 9 10 9 8 7 6 5 4 4 4 5 6 6 7 7 7 7 6 4 4 4 4 4 5 6 7
6 5 2 1 3 4 4 4 5 5 5 5 5 5 6 5 5 6 10 11 8 4 2 2 4 8 9 9 13 17 18 17 17 18 17 16 14 11 7 6 8 10 11 10 10 9 9 9 9 8 8 7 7 7 7 7 6 6 6 6 6 5 5 6 6 5 4 4 4 3 3 3 4 4 4 5 5 4 4 5 5 5 6 7 8
5 5 5 5 5 4 4 4 3 3 4 5 5 5 6 8 8 7 7 8 9 8 5 3 3 4 4 3 4 8 12 12 12 15 19 22 20 13 6 6 7 8 9 10 10 9 9 8 8 8 8 9 9 8 8 8 8 8 7 6 6 5 5 5 4 3 2 2 2 2 2 1 2 3 3 4 4 4 4 5 5 5 5 6 6
5 5 5 5 5 5 5 4 4 4 4 4 5 6 8 9 8 8 8 8 9 8 6 6 6 5 4 3 2 4 6 7 6 7 10 15 19 16 11 9 8 6 6 8 10 10 10 9 8 6 6 7 9 9 8 7 7 8 8 8 8 7 6 6 5 4 4 4 4 4 4 4 5 5 5 5 5 5 6 6 6 5 5 5 5
6 6 6 6 5 5 5 4 4 5 5 6 7 6 6 6 5 4 6 8 10 9 7 6 7 7 6 3 2 4 6 6 6 5 5 6 9 10 11 12 12 11 9 8 9 11 12 12 11 9 6 5 7 8 7 6 6 6 6 6 7 8 8 8 8 7 7 7 7 7 7 8 8 7 7 7 6 7 7 6 6 6 6 6 6
6 6 6 6 5 5 5 5 5 5 5 6 6 4 3 4 5 5 6 6 7 8 9 8 8 8 7 6 5 6 7 8 7 7 6 5 3 4 7 9 10 12 13 12 11 11 11 11 12 13 12 10 8 7 6 5 6 6 6 6 6 6 6 6 6 7 8 8 8 8 8 8 7 7 7 7 7 7 7 6 6 6 6 6 6
6 5 5 5 5 5 5 5 5 5 5 5 4 4 5 5 5 5 5 6 6 6 7 8 9 9 9 8 8 7 7 7 7 7 7 6 5 5 5 4 4 6 9 11 11 11 10 9 9 11 13 14 14 12 9 6 4 4 4 5 6 7 7 8 8 7 7 7 8 8 8 8 8 7 7 6 6 6 6 6 6 6 5 5 6
8 8 7 6 6 5 5 5 5 5 5 5 5 5 5 5 5 6 5 6 7 7 7 7 8 9 10 10 10 9 9 9 9 8 8 7 7 7 6 5 4 4 5 5 7 9 10 10 10 10 10 11 13 14 14 12 11 9 7 6 6 5 5 8 9 9 9 9 9 9 9 10 11 12 11 10 9 7 6 5 5 5 5 4 4
7 8 8 8 8 8 7 7 7 7 7 7 7 6 6 6 6 6 6 6 6 7 7 7 8 8 9 10 9 9 9 10 9 9 8 8 8 8 7 7 6 6 5 4 4 5 6 7 8 9 10 10 9 9 11 12 13 13 13 12 10 7 5 5 7 9 10 11 10 9 9 10 11 13 14 16 16 14 11 9 8 8 7 6 6
7 7 7 7 8 8 8 8 8 8 8 8 8 8 8 8 7 7 7 7 8 7 7 7 7 8 8 9 9 9 8 9 9 9 9 9 8 8 8 8 7 6 6 5 5 4 4 3 3 4 6 9 9 9 9 8 8 9 11 12 14 13 11 9 9 9 10 11 12 11 10 10 9 7 8 10 13 16 17 16 13 13 13 12 11
7 7 7 7 7 7 7 7 7 7 8 8 9 9 8 8 8 8 8 8 7 7 8 8 7 7 7 7 8 8 8 8 8 8 8 9 9 9 9 8 8 7 6 6 6 6 6 6 5 4 4 4 6 7 8 8 8 8 9 10 11 13 12 11 10 9 9 10 11 12 12 13 13 11 9 8 8 10 14 15 14 14 16 18 17
7 7 7 6 7 7 7 7 7 7 7 7 7 8 8 8 7 7 7 8 8 7 7 7 7 7 7 7 7 7 8 8 7 7 7 7 8 8 9 9 9 9 9 8 7 7 7 8 8 7 7 5 4 4 5 6 8 8 9 9 9 9 10 10 9 9 8 8 8 8 8 9 11 12 12 12 11 9 8 11 14 13 12 14 15
7 7 7 7 7 7 7 7 7 6 7 7 6 5 5 5 6 5 4 4 4 5 5 5 5 5 5 6 6 7 7 7 7 7 7 7 6 7 8 8 8 8 9 9 9 9 9 9 8 8 8 7 6 5 4 4 5 5 6 7 7 7 7 7 7 8 7 6 6 6 5 4 5 6 9 13 15 12 7 8 12 13 9 8 11
8 8 9 9 9 9 8 8 7 6 6 6 5 5 4 3 3 4 4 3 2 2 2 3 3 4 4 4 5 5 5 6 6 6 6 6 6 6 6 7 7 7 8 8 9 9 9 9 9 9 9 9 9 8 7 6 5 4 3 3 4 5 6 6 7 7 7 5 5 5 5 5 5 5 6 9 12 13 10 9 10 10 9 8 11
10 10 10 10 10 10 10 9 9 9 8 8 7 7 6 5 4 3 4 5 4 3 3 3 3 3 3 3 3 4 4 4 4 4 5 5 5 5 5 6 6 6 6 6 7 7 8 8 9 9 9 9 10 10 10 9 8 7 5 4 3 3 4 4 5 6 7 6 6 5 5 6 7 7 6 6 6 9 11 11 10 9 7 8 11
7 7 7 8 7 7 8 8 8 9 9 9 9 9 8 8 8 6 5 5 6 6 7 7 6 6 6 5 5 4 4 3 3 3 3 3 3 4 4 4 5 5 5 5 5 6 6 7 7 8 8 8 8 9 10 11 10 10 9 8 6 5 4 4 4 4 5 6 7 6 6 6 6 6 6 6 6 6 7 9 10 9 9 10 13
8 6 6 6 6 6 6 7 7 8 8 8 8 8 8 9 9 9 9 9 8 9 9 9 9 9 8 7 7 6 6 5 5 4 3 3 3 3 3 4 4 4 4 4 4 4 5 5 5 6 6 6 6 7 7 9 9 10 11 11 10 9 8 7 6 5 5 6 6 6 6 6 6 6 6 7 8 7 7 7 8 10 12 13 14
12 12 11 10 10 10 10 10 10 10 9 9 9 9 9 9 9 9 10 10 10 11 11 10 9 9 9 9 9 8 8 7 7 6 6 5 4 4 3 3 3 4 4 4 4 4 4 4 4 5 5 5 5 5 5 6 6 7 8 9 10 11 12 11 10 9 8 8 6 5 4 3 4 5 6 6 7 8 8 7 6 8 10 10 11
14 14 14 14 14 14 13 13 13 13 12 12 11 11 11 11 11 11 11 11 11 11 12 12 11 10 10 9 9 10 10 10 9 8 8 7 7 6 5 4 4 4 4 4 3 3 3 4 4 4 4 4 4 4 4 5 5 5 5 6 6 7 9 10 11 11 11 11 9 7 5 3 3 4 5 6 6 7 8 9 9 9 8 7 8
10 11 11 12 12 13 13 12 12 12 12 12 12 12 12 12 12 12 12 12 12 12 12 13 13 13 12 11 9 8 9 10 11 11 10 9 9 8 7 7 6 6 5 5 5 4 4 4 4 4 4 4 4 4 4 4 4 4 5 4 4 5 5 6 7 8 9 10 10 10 8 7 6 5 4 4 4 5 6 7 8 9 8 7 8
10 9 9 8 8 9 9 9 9 9 10 10 9 10 10 10 11 11 11 12 12 12 12 12 12 13 13 13 12 10 9 9 10 10 10 11 11 9 8 8 7 7 7 6 6 5 5 5 5 4 4 5 5 5 5 4 4 4 4 4 4 4 4 4 4 5 6 7 8 9 9 9 9 8 6 4 3 3 4 6 7 8 8 8 8
16 15 14 14 14 13 12 11 10 10 10 10 10 10 11 11 11 12 12 12 12 12 12 12 12 12 12 12 13 13 12 11 11 10 10 11 11 11 10 10 9 9 8 8 7 7 6 6 6 6 6 6 5 5 5 5 5 5 5 4 4 4 4 4 4 4 4 4 5 6 7 7 9 10 9 8 6 4 4 4 4 5 7 7 7
16 16 16 16 16 16 15 15 14 14 13 13 13 13 12 12 12 12 13 13 13 13 13 13 13 13 12 12 12 12 12 12 11 10 10 9 9 9 10 10 10 10 10 10 9 9 8 8 7 7 6 6 6 6 6 6 6 6 5 5 5 5 5 5 5 4 4 4 3 4 4 5 6 8 8 9 9 8 7 6 4 4 5 6 6
6 8 8 9 10 11 11 11 11 12 12 12 12 13 13 14 14 14 13 12 11 10 10 11 11 12 12 12 13 13 13 13 13 13 12 11 10 9 9 8 8 7 8 9 10 10 10 10 10 9 9 8 7 7 7 6 6 6 6 6 6 6 6 6 6 6 6 5 4 4 3 3 4 4 5 7 8 8 7 7 7 6 5 5 5
5 5 5 7 7 8 9 9 9 9 10 10 10 11 11 10 9 8 7 7 6 5 5 6 6 8 8 8 9 9 10 11 12 13 14 13 13 13 12 11 10 8 6 6 7 7 8 9 9 10 10 10 9 9 8 7 6 6 6 6 7 7 7 7 7 6 6 6 6 6 5 4 4 3 3 4 6 6 6 8 7 7 6 6 5
14 13 12 12 12 11 11 11 11 10 10 10 9 7 6 4 2 1 1 2 2 2 3 5 6 8 8 9 8 8 7 7 7 9 10 11 12 12 13 13 13 12 11 9 8 7 7 7 7 8 9 10 10 11 11 10 9 8 7 6 6 6 6 6 6 6 7 7 7 7 7 6 5 4 4 4 4 3 5 6 6 5 5 5 5
12 13 13 13 13 13 11 10 9 8 8 7 6 4 2 2 2 2 3 4 5 6 8 9 10 10 10 8 7 5 4 4 5 6 8 9 10 10 11 12 12 13 12 12 11 11 10 8 7 7 7 7 8 9 10 11 11 10 9 9 8 7 6 6 6 6 7 7 7 7 7 7 7 6 5 5 4 4 4 5 5 5 6 6 5
14 14 14 15 15 15 14 14 13 13 12 12 12 11 10 10 10 11 12 12 13 13 12 11 11 10 9 8 7 6 7 9 11 12 13 14 14 14 14 14 14 14 14 13 12 12 12 11 11 10 8 7 7 7 7 8 9 9 9 9 8 8 7 7 6 6 6 6 6 7 7 8 8 7 6 6 5 4 4 4 4 4 5 5 5
15 14 14 15 14 14 14 14 14 15 15 15 15 15 15 15 15 15 15 15 14 14 13 13 12 13 13 14 15 17 18 19 20 20 20 20 20 20 19 18 17 16 16 16 15 14 13 12 11 11 10 10 9 8 7 7 7 7 7 7 7 7 6 7 6 6 6 6 6 6 7 7 8 8 7 7 7 6 5 5 5 5 5 5 5
10 10 10 10 10 10 10 10 11 12 12 13 13 14 14 15 15 14 14 14 14 14 15 15 16 18 19 20 20 20 20 19 20 20 21 21 22 22 22 22 21 20 20 20 20 20 19 18 17 15 14 13 12 11 10 8 7 7 7 7 8 8 8 8 8 8 7 6 6 6 6 7 7 8 8 8 7 7 6 6 5 5 5 5 5
10 10 10 10 10 11 11 11 11 12 11 11 12 12 12 13 13 13 14 14 15 16 18 19 20 20 20 18 18 18 18 18 18 19 19 19 20 21 23 24 26 26 26 25 24 24 23 23 22 21 19 18 16 15 14 12 11 9 8 7 6 7 7 8 8 9 9 8 8 8 7 7 7 7 8 8 8 8 7 7 7 6 6 6 6
11 10 10 10 10 10 10 9 10 10 10 11 12 12 13 13 14 14 14 15 16 17 18 18 18 19 19 20 22 23 23 23 23 23 24 24 25 26 27 28 30 32 33 34 34 33 32 31 29 28 26 24 22 20 18 17 15 14 12 11 9 7 6 6 7 8 8 7 8 9 9 9 8 7 7 8 8 8 7 7 7 6 6 7 7
Height
5935 5935 5935 5935 5936 5937 5938 5939 5940 5941 5943 5945 5946 5947 5948 5948 5948 5949 5950 5950 5951 5952 5953 5954 5955 5956 5957 5958 5959 5959 5959 5959 5960 5960 5961 5961 5961 5961 5961 5961 5962 5962 5962 5963 5964 5964 5965 5966 5966 5966 5967 5967 5968 5968 5968 5968 5969 5969 5969 5969 5969 5969 5969 5970 5970 5970 5970 5970 5970 5970 5970 5970 5969 5969 5969 5969 5969 5968 5967 5967 5967 5966 5965 5964 5963
5931 5930 5930 5932 5934 5936 5937 5937 5938 5939 5940 5942 5944 5945 5946 5946 5947 5947 5948 5949 5949 5950 5951 5953 5954 5955 5955 5956 5958 5958 5959 5959 5960 5960 5960 5961 5961 5961 5961 5961 5961 5961 5961 5962 5962 5963 5964 5965 5965 5966 5966 5967 5967 5967 5968 5968 5968 5968 5968 5969 5969 5969 5969 5969 5969 5969 5969 5969 5969 5968 5969 5969 5968 5968 5968 5968 5967 5967 5966 5966 5966 5966 5965 5964 5963
5927 5926 5928 5931 5932 5934 5935 5936 5937 5937 5938 5939 5941 5943 5944 5945 5946 5946 5946 5947 5948 5948 5950 5951 5952 5953 5954 5955 5956 5957 5958 5959 5959 5960 5960 5960 5961 5960 5960 5961 5961 5961 5961 5961 5961 5962 5962 5963 5963 5964 5965 5965 5966 5966 5967 5967 5967 5968 5968 5968 5968 5968 5968 5968 5968 5968 5968 5968 5968 5967 5968 5968 5968 5967 5967 5967 5967 5966 5966 5966 5965 5965 5965 5964 5963
5925 5925 5926 5929 5930 5932 5934 5935 5936 5936 5936 5937 5939 5941 5943 5944 5944 5945 5945 5945 5946 5947 5948 5949 5950 5951 5953 5954 5955 5956 5957 5958 5958 5959 5959 5960 5960 5960 5960 5960 5960 5960 5960 5960 5960 5961 5961 5961 5962 5962 5963 5964 5964 5965 5965 5966 5966 5967 5967 5967 5968 5968 5968 5968 5968 5967 5967 5967 5967 5967 5967 5967 5966 5966 5966 5966 5966 5966 5966 5965 5965 5965 5964 5964 5963
5923 5923 5925 5926 5928 5930 5932 5933 5934 5934 5935 5936 5937 5939 5941 5942 5942 5943 5943 5944 5944 5945 5946 5947 5948 5949 5951 5953 5954 5955 5956 5957 5957 5958 5958 5959 5959 5960 5960 5960 5960 5960 5959 5960 5960 5960 5960 5960 5960 5961 5961 5961 5962 5963 5964 5964 5965 5966 5966 5966 5966 5967 5967 5967 5967 5967 5967 5966 5966 5966 5966 5966 5966 5965 5965 5966 5965 5965 5965 5965 5964 5964 5964 5963 5963
5920 5921 5923 5924 5925 5927 5929 5931 5931 5932 5933 5934 5936 5937 5939 5940 5940 5941 5942 5943 5944 5944 5945 5945 5946 5947 5948 5950 5952 5954 5955 5955 5956 5957 5957 5957 5958 5958 5959 5959 5959 5959 5959 5959 5959 5959 5960 5960 5960 5960 5959 5960 5960 5960 5961 5962 5963 5964 5964 5965 5965 5965 5966 5966 5966 5966 5966 5966 5965 5965 5965 5965 5965 5964 5964 5965 5965 5964 5964 5964 5963 5963 5963 5963 5962
5918 5918 5919 5920 5922 5924 5926 5928 5929 5930 5931 5932 5934 5935 5936 5938 5939 5940 5941 5941 5942 5943 5944 5945 5945 5946 5946 5948 5949 5951 5952 5953 5954 5955 5955 5956 5956 5957 5958 5958 5958 5959 5959 5959 5959 5959 5959 5959 5960 5959 5959 5959 5959 5959 5959 5960 5961 5961 5962 5963 5963 5964 5964 5964 5965 5965 5965 5965 5964 5964 5964 5964 5964 5963 5963 5963 5964 5964 5963 5963 5962 5962 5962 5962 5961
5915 5915 5915 5916 5917 5919 5922 5924 5926 5928 5929 5930 5932 5933 5934 5936 5937 5938 5939 5940 5941 5941 5942 5943 5944 5945 5945 5946 5947 5948 5950 5951 5952 5953 5954 5954 5955 5955 5956 5957 5957 5958 5958 5958 5958 5958 5958 5958 5959 5959 5959 5959 5959 5959 5959 5959 5959 5960 5960 5961 5962 5962 5963 5963 5963 5964 5964 5963 5963 5963 5963 5963 5962 5962 5962 5962 5962 5962 5962 5962 5962 5961 5960 5960 5959
5913 5914 5913 5913 5914 5916 5918 5921 5923 5925 5926 5928 5929 5930 5932 5933 5934 5935 5937 5938 5939 5939 5940 5941 5942 5943 5944 5945 5945 5945 5947 5948 5950 5951 5952 5952 5953 5954 5954 5955 5956 5956 5957 5957 5957 5957 5957 5957 5958 5958 5958 5959 5959 5959 5959 5959 5959 5959 5959 5960 5960 5961 5962 5962 5962 5963 5963 5962 5962 5962 5962 5961 5961 5961 5961 5960 5960 5961 5960 5960 5960 5960 5960 5959 5957
5912 5913 5913 5914 5914 5915 5916 5918 5920 5922 5923 5925 5926 5927 5929 5930 5931 5932 5934 5936 5937 5937 5938 5939 5940 5941 5941 5943 5944 5944 5944 5945 5947 5948 5950 5951 5951 5952 5953 5953 5954 5955 5955 5956 5956 5956 5956 5957 5957 5957 5957 5957 5958 5958 5958 5959 5959 5959 5959 5959 5960 5960 5961 5961 5961 5961 5961 5961 5961 5960 5960 5960 5959 5959 5959 5959 5959 5959 5959 5959 5959 5959 5959 5958 5957
5910 5911 5912 5913 5914 5915 5915 5916 5917 5918 5920 5922 5924 5925 5926 5928 5928 5930 5931 5933 5934 5935 5936 5937 5938 5939 5939 5940 5941 5942 5942 5943 5944 5945 5947 5948 5949 5950 5951 5951 5952 5953 5953 5954 5954 5955 5955 5955 5956 5956 5956 5956 5956 5956 5957 5957 5958 5958 5958 5958 5958 5958 5959 5959 5959 5959 5959 5960 5959 5959 5959 5958 5958 5957 5957 5957 5957 5957 5957 5957 5958 5958 5957 5957 5956
5909 5910 5911 5912 5912 5913 5913 5914 5915 5916 5917 5919 5922 5923 5924 5926 5927 5928 5929 5931 5932 5933 5934 5935 5936 5937 5938 5938 5939 5940 5940 5940 5941 5942 5943 5945 5946 5947 5948 5949 5950 5950 5951 5951 5952 5952 5952 5953 5953 5954 5954 5954 5954 5954 5955 5955 5956 5956 5957 5956 5956 5956 5957 5957 5957 5957 5957 5957 5957 5957 5957 5957 5957 5956 5956 5956 5956 5956 5956 5956 5956 5956 5956 5955 5955
5909 5910 5910 5911 5910 5910 5911 5912 5913 5914 5915 5917 5919 5921 5922 5923 5925 5927 5928 5929 5930 5930 5931 5933 5934 5935 5935 5936 5936 5937 5938 5938 5938 5939 5940 5941 5942 5944 5945 5946 5947 5948 5949 5949 5949 5949 5950 5950 5950 5951 5951 5951 5951 5951 5952 5952 5953 5954 5954 5954 5954 5954 5954 5954 5954 5954 5954 5955 5955 5955 5955 5955 5955 5955 5954 5954 5955 5955 5955 5955 5954 5954 5954 5954 5953
5906 5907 5907 5908 5909 5909 5910 5910 5911 5912 5913 5915 5917 5919 5919 5920 5922 5924 5926 5927 5927 5927 5928 5929 5931 5932 5933 5934 5934 5934 5935 5935 5935 5935 5936 5937 5939 5941 5942 5943 5944 5945 5946 5947 5947 5947 5947 5948 5948 5948 5948 5949 5949 5949 5949 5949 5950 5951 5952 5952 5952 5951 5951 5952 5951 5951 5952 5952 5953 5953 5953 5952 5953 5954 5953 5953 5953 5953 5953 5953 5952 5952 5951 5951 5951
5902 5903 5904 5905 5907 5908 5908 5909 5909 5910 5912 5913 5915 5916 5917 5918 5919 5921 5923 5924 5924 5924 5925 5926 5928 5929 5930 5931 5931 5931 5932 5933 5933 5933 5934 5935 5936 5938 5939 5940 5941 5942 5943 5944 5944 5945 5945 5945 5946 5946 5946 5946 5946 5946 5946 5946 5947 5948 5949 5950 5950 5949 5950 5950 5949 5949 5950 5950 5951 5951 5951 5951 5951 5952 5952 5951 5951 5951 5951 5951 5950 5949 5948 5949 5949
5900 5901 5902 5903 5904 5905 5906 5907 5908 5909 5910 5912 5913 5914 5916 5917 5917 5918 5919 5920 5921 5921 5922 5924 5925 5926 5927 5928 5928 5928 5929 5930 5931 5932 5932 5933 5933 5934 5936 5937 5938 5939 5940 5941 5942 5942 5943 5943 5944 5944 5944 5944 5944 5944 5944 5944 5945 5946 5947 5947 5947 5947 5948 5947 5947 5947 5947 5948 5948 5949 5949 5949 5949 5950 5949 5949 5948 5947 5947 5948 5947 5945 5945 5947 5946
5897 5898 5899 5901 5902 5903 5904 5905 5907 5908 5909 5910 5911 5912 5913 5914 5915 5916 5916 5917 5918 5919 5920 5921 5922 5923 5924 5925 5925 5926 5926 5927 5928 5929 5931 5931 5931 5931 5932 5934 5935 5937 5938 5938 5939 5940 5940 5940 5941 5941 5941 5941 5941 5941 5941 5942 5943 5944 5944 5945 5945 5945 5946 5945 5944 5944 5944 5945 5946 5946 5947 5947 5947 5947 5946 5946 5945 5944 5944 5945 5943 5941 5942 5944 5943
5894 5895 5896 5897 5899 5901 5902 5903 5904 5905 5906 5907 5908 5909 5911 5912 5913 5914 5914 5914 5914 5916 5918 5919 5920 5921 5921 5921 5921 5922 5923 5924 5925 5926 5927 5929 5930 5930 5930 5931 5932 5934 5935 5935 5936 5937 5937 5937 5938 5938 5939 5939 5938 5938 5938 5939 5940 5941 5942 5942 5943 5944 5944 5942 5941 5941 5941 5942 5943 5944 5944 5944 5944 5944 5943 5942 5941 5940 5940 5940 5939 5938 5939 5940 5940
5891 5892 5893 5894 5895 5897 5899 5900 5901 5903 5903 5904 5905 5907 5908 5909 5911 5912 5912 5912 5912 5913 5914 5915 5916 5917 5917 5917 5918 5919 5920 5921 5922 5922 5923 5924 5927 5928 5928 5929 5929 5930 5931 5932 5933 5934 5934 5934 5934 5934 5935 5935 5935 5935 5935 5935 5937 5939 5939 5939 5941 5941 5940 5938 5937 5938 5939 5940 5940 5941 5941 5941 5941 5940 5940 5939 5937 5936 5936 5936 5936 5935 5936 5937 5936
5888 5890 5891 5891 5892 5893 5895 5896 5898 5899 5900 5901 5902 5903 5905 5906 5908 5909 5910 5910 5910 5911 5912 5913 5913 5914 5914 5915 5915 5916 5917 5918 5920 5919 5919 5920 5923 5925 5925 5924 5925 5926 5927 5929 5930 5930 5930 5930 5930 5930 5931 5932 5932 5932 5932 5932 5933 5935 5936 5936 5937 5937 5935 5934 5935 5936 5936 5937 5937 5937 5938 5937 5937 5937 5936 5935 5933 5932 5932 5932 5933 5932 5933 5933 5933
5884 5886 5887 5888 5889 5890 5891 5892 5893 5895 5896 5897 5898 5899 5901 5902 5903 5905 5906 5907 5908 5908 5910 5910 5911 5911 5912 5912 5913 5913 5914 5916 5917 5916 5915 5916 5918 5921 5921 5920 5921 5922 5923 5924 5926 5926 5926 5927 5927 5927 5927 5928 5929 5929 5929 5929 5929 5931 5932 5932 5933 5932 5931 5932 5933 5933 5933 5933 5933 5933 5933 5933 5933 5932 5931 5931 5930 5929 5928 5929 5930 5930 5930 5930 5929
5879 5881 5882 5884 5885 5886 5888 5889 5890 5891 5892 5893 5894 5895 5896 5897 5899 5900 5901 5902 5903 5905 5906 5907 5907 5908 5908 5909 5909 5909 5910 5911 5912 5912 5912 5913 5915 5917 5917 5917 5917 5918 5919 5920 5921 5922 5922 5923 5923 5924 5924 5925 5926 5926 5926 5926 5926 5927 5927 5927 5928 5928 5928 5929 5929 5929 5929 5929 5929 5930 5930 5929 5928 5927 5927 5926 5926 5925 5925 5926 5926 5926 5926 5926 5926
5873 5875 5877 5879 5880 5882 5883 5884 5885 5886 5887 5888 5890 5891 5892 5893 5894 5895 5896 5897 5899 5900 5901 5903 5903 5903 5904 5905 5905 5905 5905 5906 5907 5907 5908 5909 5911 5912 5913 5913 5913 5914 5915 5916 5916 5917 5918 5919 5919 5920 5921 5921 5922 5922 5922 5922 5922 5922 5922 5923 5923 5924 5924 5925 5925 5924 5924 5925 5925 5926 5926 5925 5924 5924 5923 5922 5922 5921 5922 5922 5922 5922 5922 5922 5922
5868 5869 5871 5873 5875 5876 5878 5879 5880 5881 5882 5883 5885 5886 5887 5889 5890 5891 5892 5893 5894 5895 5897 5898 5899 5899 5899 5900 5901 5901 5902 5902 5903 5903 5904 5905 5907 5907 5908 5908 5908 5910 5911 5912 5913 5913 5914 5914 5915 5916 5916 5917 5917 5917 5917 5917 5917 5917 5917 5917 5918 5918 5919 5919 5919 5919 5920 5920 5920 5921 5921 5920 5920 5919 5918 5918 5918 5918 5918 5918 5918 5918 5918 5918 5918
5862 5864 5865 5867 5869 5870 5872 5873 5874 5875 5877 5878 5880 5881 5883 5884 5885 5886 5888 5888 5889 5890 5892 5893 5894 5895 5895 5896 5896 5897 5898 5898 5898 5899 5900 5901 5901 5902 5903 5903 5904 5905 5906 5908 5909 5909 5909 5910 5910 5911 5911 5912 5912 5912 5912 5912 5912 5912 5912 5912 5912 5913 5913 5913 5913 5913 5914 5915 5916 5916 5917 5916 5915 5914 5915 5914 5914 5914 5913 5913 5914 5914 5913 5913 5914
5856 5858 5859 5861 5863 5864 5865 5867 5868 5870 5871 5873 5874 5876 5877 5879 5880 5881 5882 5883 5884 5885 5886 5888 5889 5890 5891 5892 5892 5893 5893 5893 5893 5894 5895 5895 5896 5897 5897 5898 5899 5901 5902 5903 5904 5904 5905 5905 5905 5906 5906 5906 5907 5907 5907 5907 5906 5907 5907 5907 5907 5907 5907 5907 5908 5909 5910 5911 5911 5912 5912 5911 5910 5910 5910 5910 5910 5910 5909 5908 5909 5909 5908 5907 5909
5850 5852 5854 5855 5857 5858 5859 5861 5862 5864 5865 5867 5868 5870 5871 5873 5874 5876 5877 5878 5879 5880 5881 5883 5884 5886 5887 5888 5888 5888 5889 5889 5889 5889 5890 5890 5891 5891 5892 5893 5894 5895 5897 5898 5898 5899 5900 5900 5900 5901 5901 5901 5901 5901 5901 5901 5901 5902 5902 5901 5901 5901 5902 5904 5905 5906 5906 5907 5906 5907 5907 5907 5906 5906 5906 5905 5906 5905 5903 5902 5904 5905 5903 5901 5904
5844 5846 5847 5849 5851 5852 5854 5855 5857 5858 5859 5861 5862 5864 5865 5867 5868 5870 5871 5873 5874 5875 5876 5877 5878 5880 5881 5882 5883 5883 5883 5883 5883 5884 5884 5885 5886 5886 5886 5887 5888 5890 5891 5892 5893 5894 5894 5895 5895 5895 5895 5895 5896 5896 5896 5896 5896 5896 5896 5896 5895 5896 5898 5900 5900 5900 5900 5900 5900 5901 5902 5902 5902 5901 5900 5900 5900 5900 5898 5897 5898 5900 5898 5897 5898
5838 5839 5841 5843 5844 5846 5848 5849 5851 5852 5854 5855 5856 5858 5859 5861 5862 5863 5865 5866 5868 5869 5870 5871 5872 5873 5875 5876 5877 5878 5878 5877 5878 5878 5879 5879 5880 5880 5881 5882 5883 5883 5884 5886 5887 5888 5888 5889 5889 5889 5889 5890 5890 5890 5890 5890 5891 5891 5891 5891 5890 5891 5892 5894 5894 5894 5894 5894 5895 5896 5896 5896 5896 5895 5894 5893 5894 5894 5893 5892 5893 5894 5893 5892 5892
5831 5833 5834 5836 5837 5839 5841 5843 5845 5846 5847 5849 5850 5851 5853 5854 5855 5857 5858 5859 5861 5862 5864 5865 5866 5867 5868 5869 5870 5872 5872 5872 5872 5872 5873 5873 5873 5874 5875 5876 5877 5877 5878 5879 5881 5882 5882 5883 5883 5883 5883 5884 5884 5884 5884 5884 5885 5886 5886 5886 5886 5886 5886 5887 5888 5888 5888 5889 5889 5890 5890 5889 5889 5888 5887 5888 5889 5890 5888 5887 5887 5887 5886 5886 5886
5824 5826 5828 5829 5831 5833 5835 5836 5838 5839 5841 5842 5844 5845 5846 5847 5849 5850 5851 5852 5853 5855 5856 5858 5859 5860 5861 5863 5864 5865 5866 5866 5866 5866 5866 5867 5867 5868 5869 5870 5871 5872 5873 5874 5875 5876 5876 5877 5877 5877 5877 5877 5878 5878 5878 5879 5880 5880 5881 5881 5881 5881 5881 5881 5881 5882 5882 5883 5883 5883 5883 5882 5882 5882 5882 5883 5885 5885 5883 5882 5881 5881 5880 5879 5880
5816 5818 5820 5822 5824 5826 5827 5829 5831 5832 5833 5835 5836 5838 5839 5840 5842 5843 5845 5846 5847 5847 5848 5850 5851 5853 5854 5855 5856 5858 5858 5859 5860 5860 5860 5860 5861 5862 5863 5864 5865 5866 5866 5867 5868 5869 5869 5870 5870 5871 5870 5871 5871 5872 5872 5873 5874 5874 5874 5875 5875 5875 5875 5875 5875 5876 5877 5877 5877 5877 5877 5877 5876 5877 5878 5878 5879 5879 5878 5877 5876 5874 5873 5873 5873
5809 5810 5812 5814 5816 5818 5820 5821 5823 5824 5826 5827 5829 5830 5832 5833 5834 5836 5837 5839 5840 5841 5841 5842 5843 5845 5846 5847 5848 5850 5851 5851 5852 5853 5854 5854 5855 5855 5857 5858 5858 5858 5859 5860 5861 5862 5862 5863 5864 5864 5864 5864 5865 5866 5866 5867 5868 5868 5868 5868 5869 5869 5869 5869 5870 5871 5871 5871 5871 5871 5872 5872 5872 5872 5873 5873 5873 5873 5872 5872 5870 5869 5868 5868 5868
5801 5803 5804 5806 5808 5809 5811 5813 5815 5816 5818 5819 5821 5822 5824 5826 5827 5828 5829 5830 5832 5834 5835 5835 5836 5837 5838 5839 5840 5841 5842 5843 5844 5845 5846 5847 5848 5849 5850 5851 5851 5851 5852 5853 5854 5855 5855 5856 5857 5857 5857 5858 5858 5859 5860 5861 5861 5861 5861 5862 5862 5863 5863 5864 5864 5865 5865 5866 5866 5866 5867 5867 5867 5866 5867 5867 5867 5867 5867 5867 5866 5864 5864 5864 5863
5793 5795 5796 5798 5800 5801 5803 5804 5806 5808 5809 5811 5812 5814 5816 5817 5819 5821 5822 5823 5824 5825 5826 5827 5828 5829 5830 5831 5832 5832 5833 5834 5835 5837 5838 5839 5839 5841 5842 5843 5844 5844 5845 5846 5846 5847 5848 5849 5849 5850 5850 5851 5851 5852 5853 5853 5853 5854 5854 5855 5856 5857 5857 5858 5858 5859 5859 5860 5861 5861 5862 5861 5861 5860 5859 5860 5861 5862 5862 5861 5860 5860 5859 5859 5859
5785 5786 5788 5790 5792 5793 5795 5796 5798 5799 5800 5802 5803 5805 5806 5808 5809 5811 5813 5814 5816 5817 5817 5817 5818 5819 5821 5822 5823 5824 5824 5825 5827 5828 5829 5830 5831 5832 5833 5834 5835 5836 5837 5838 5839 5839 5840 5841 5842 5842 5843 5844 5844 5845 5845 5846 5846 5847 5847 5848 5848 5850 5851 5851 5852 5852 5853 5854 5855 5856 5856 5855 5854 5852 5852 5854 5855 5856 5856 5855 5855 5854 5854 5854 5854
5777 5778 5780 5782 5783 5785 5786 5788 5789 5790 5791 5792 5794 5795 5796 5798 5799 5801 5803 5804 5806 5808 5809 5809 5808 5809 5810 5811 5813 5814 5816 5817 5818 5819 5820 5821 5822 5823 5824 5825 5826 5827 5828 5829 5829 5830 5832 5833 5834 5834 5835 5835 5836 5837 5838 5838 5839 5840 5840 5841 5841 5842 5843 5844 5844 5845 5846 5847 5849 5850 5850 5849 5847 5846 5846 5847 5848 5849 5850 5849 5848 5848 5848 5848 5848
5769 5770 5772 5773 5775 5776 5778 5779 5780 5781 5782 5784 5785 5786 5787 5789 5790 5791 5793 5794 5796 5797 5799 5800 5800 5800 5800 5801 5801 5803 5805 5807 5809 5810 5811 5812 5812 5813 5815 5815 5816 5818 5819 5820 5820 5820 5821 5823 5824 5825 5826 5827 5827 5828 5829 5830 5831 5832 5832 5833 5834 5835 5836 5836 5837 5838 5839 5840 5842 5843 5843 5842 5841 5840 5840 5840 5842 5842 5842 5842 5842 5842 5842 5842 5842
5761 5763 5764 5765 5767 5768 5769 5770 5771 5772 5774 5775 5776 5777 5778 5780 5781 5782 5783 5785 5786 5788 5789 5790 5791 5791 5791 5791 5791 5791 5793 5795 5797 5799 5801 5802 5802 5803 5804 5805 5806 5807 5809 5810 5810 5810 5811 5812 5814 5815 5816 5817 5818 5819 5820 5821 5822 5823 5824 5825 5826 5827 5827 5828 5829 5830 5831 5833 5834 5835 5835 5835 5835 5834 5834 5834 5834 5835 5835 5835 5836 5836 5836 5837 5837
5752 5754 5756 5757 5758 5759 5760 5762 5763 5764 5765 5766 5767 5768 5770 5771 5772 5773 5774 5775 5777 5778 5779 5780 5780 5781 5781 5782 5782 5782 5783 5784 5785 5786 5788 5790 5791 5792 5793 5794 5795 5796 5798 5799 5800 5800 5801 5802 5803 5804 5805 5806 5808 5809 5810 5811 5813 5814 5815 5816 5817 5818 5819 5820 5821 5821 5823 5824 5826 5827 5827 5827 5828 5828 5828 5827 5827 5827 5827 5828 5829 5829 5829 5830 5831
5744 5746 5747 5748 5749 5750 5751 5753 5754 5755 5756 5757 5759 5760 5761 5762 5763 5764 5765 5766 5767 5768 5769 5770 5770 5770 5770 5771 5771 5771 5773 5774 5775 5774 5775 5776 5778 5779 5781 5782 5783 5784 5785 5787 5788 5789 5791 5792 5792 5793 5795 5796 5796 5797 5799 5800 5802 5803 5805 5806 5807 5809 5810 5811 5812 5813 5814 5815 5817 5818 5819 5819 5819 5819 5820 5821 5820 5820 5820 5821 5822 5822 5822 5823 5823
5738 5739 5739 5740 5740 5741 5743 5744 5745 5746 5747 5749 5750 5751 5752 5753 5754 5754 5755 5756 5757 5758 5759 5760 5760 5760 5760 5760 5760 5760 5761 5763 5764 5764 5764 5764 5765 5766 5767 5769 5770 5771 5772 5774 5776 5777 5779 5780 5782 5782 5783 5784 5785 5787 5788 5789 5791 5792 5794 5795 5797 5799 5800 5802 5803 5804 5805 5806 5808 5809 5810 5810 5810 5810 5812 5813 5813 5812 5812 5813 5814 5814 5815 5815 5816
5731 5731 5732 5732 5733 5734 5735 5736 5737 5738 5738 5740 5741 5742 5743 5743 5744 5745 5746 5746 5747 5747 5748 5749 5749 5749 5749 5749 5749 5749 5750 5751 5752 5752 5753 5753 5754 5754 5755 5755 5756 5756 5758 5760 5762 5764 5766 5768 5769 5770 5771 5773 5774 5776 5778 5779 5779 5780 5782 5784 5786 5788 5789 5791 5792 5793 5794 5796 5798 5800 5801 5802 5802 5801 5802 5803 5804 5805 5805 5805 5806 5806 5807 5807 5808
5723 5724 5724 5725 5725 5727 5728 5728 5729 5730 5730 5731 5732 5733 5733 5734 5735 5735 5735 5736 5736 5737 5737 5738 5738 5738 5738 5738 5737 5737 5738 5739 5740 5740 5741 5742 5742 5743 5743 5743 5743 5743 5744 5746 5747 5749 5751 5754 5756 5757 5759 5760 5762 5764 5766 5767 5768 5769 5770 5772 5774 5776 5777 5778 5780 5781 5783 5785 5788 5790 5791 5792 5792 5792 5792 5793 5794 5795 5796 5797 5797 5797 5798 5799 5799
5715 5716 5716 5717 5718 5719 5720 5720 5721 5722 5722 5723 5724 5724 5725 5725 5725 5725 5725 5725 5726 5726 5726 5726 5726 5726 5727 5727 5726 5726 5726 5727 5727 5727 5728 5728 5728 5729 5730 5730 5731 5731 5732 5733 5734 5734 5736 5738 5741 5743 5745 5747 5749 5751 5753 5754 5756 5757 5758 5760 5762 5763 5764 5766 5767 5769 5771 5773 5775 5778 5780 5781 5783 5783 5783 5783 5784 5785 5786 5788 5788 5788 5789 5790 5790
5707 5708 5709 5710 5710 5711 5712 5712 5713 5713 5714 5715 5715 5715 5715 5715 5715 5715 5715 5715 5715 5715 5715 5715 5714 5714 5714 5714 5714 5713 5713 5713 5713 5714 5714 5714 5714 5714 5715 5716 5716 5717 5718 5720 5720 5721 5722 5723 5725 5728 5731 5733 5735 5737 5739 5741 5743 5744 5746 5747 5749 5751 5752 5753 5754 5756 5759 5760 5762 5765 5768 5770 5772 5773 5773 5773 5773 5774 5775 5777 5778 5779 5780 5780 5781
5699 5700 5701 5702 5703 5703 5703 5704 5704 5705 5705 5706 5706 5706 5706 5706 5705 5705 5705 5704 5704 5704 5703 5703 5702 5702 5702 5701 5701 5700 5700 5700 5699 5699 5699 5699 5699 5699 5699 5700 5700 5701 5702 5704 5705 5706 5708 5709 5711 5713 5715 5717 5720 5722 5725 5727 5729 5730 5732 5734 5736 5738 5739 5740 5742 5744 5746 5748 5750 5753 5755 5758 5760 5761 5762 5763 5763 5763 5764 5765 5767 5768 5769 5770 5771
5692 5693 5694 5694 5695 5695 5696 5696 5697 5697 5697 5697 5697 5697 5697 5696 5696 5695 5695 5694 5693 5692 5692 5691 5691 5690 5689 5688 5687 5686 5686 5686 5685 5685 5685 5684 5684 5684 5684 5684 5684 5685 5686 5687 5688 5689 5691 5693 5695 5698 5700 5702 5705 5707 5709 5711 5713 5715 5718 5720 5722 5724 5726 5727 5729 5731 5733 5735 5737 5740 5742 5745 5748 5750 5751 5752 5753 5753 5753 5754 5755 5756 5758 5759 5761
5685 5686 5687 5687 5688 5688 5688 5689 5689 5689 5689 5689 5689 5688 5688 5687 5687 5686 5685 5684 5683 5681 5681 5680 5679 5678 5677 5676 5675 5673 5673 5672 5672 5671 5671 5670 5669 5669 5669 5669 5669 5669 5670 5671 5672 5673 5674 5676 5678 5681 5683 5686 5689 5691 5693 5695 5696 5699 5702 5705 5707 5709 5711 5713 5715 5717 5719 5721 5724 5726 5729 5732 5735 5737 5739 5741 5742 5742 5743 5744 5744 5745 5745 5747 5749
5678 5679 5680 5680 5680 5681 5681 5681 5681 5681 5681 5681 5680 5680 5679 5678 5677 5676 5675 5674 5672 5671 5670 5669 5668 5667 5666 5665 5663 5662 5660 5659 5659 5658 5657 5657 5656 5655 5655 5655 5655 5655 5655 5656 5657 5657 5658 5660 5661 5663 5666 5668 5671 5674 5676 5678 5680 5682 5685 5688 5690 5693 5695 5697 5700 5702 5704 5706 5709 5713 5716 5719 5722 5724 5727 5729 5730 5731 5732 5733 5734 5734 5734 5735 5737
5671 5672 5672 5673 5673 5673 5674 5674 5673 5673 5673 5672 5672 5671 5670 5669 5668 5667 5665 5664 5662 5661 5659 5658 5657 5656 5655 5653 5652 5650 5649 5648 5647 5646 5645 5644 5643 5643 5642 5642 5641 5641 5642 5642 5643 5644 5644 5644 5645 5647 5648 5651 5653 5656 5658 5661 5663 5666 5668 5670 5673 5675 5678 5681 5684 5686 5688 5690 5693 5698 5702 5705 5708 5711 5713 5716 5717 5719 5720 5722 5722 5723 5724 5725 5726